[[{"header":{"parameterUnit":"m.s-1","parameterCategory":2,"la1":30.2991,"la2":30.254,"lo1":-89.0895,"lo2":-89.0444,"dy":0.0017,"dx":0.0017,"nx":28,"ny":28,"refTime":"2024-06-10T21:00:00:Z","depth":"0","parameterNumber":2,"parameterNumberName":"U-component_of_CURRENTS"},"data":[0,0,0,0,0,0,0,0,0,0,0,0,0,0,0,0,0,0,0,0,0,0,0,0,0,0,0,0,0,0,0,0,0,0,0,0,0,0,0,0,0,0,0,0,0,0,0,0,0,0,0,0,0,0,0,0,0,0,0.333,0.3332,0,0.3443,0.3444,0.3445,0.3469,0.3468,0.3468,0.3467,0.3572,0.3575,0.3578,0,0,0,0,0,0,0,0,0,0,0,0,0,0.3082,0.3086,0.333,0.3332,0.3334,0.3443,0.3444,0.3445,0.3469,0.3468,0.3468,0.3467,0.3571,0.3575,0.3578,0,0,0,0,0,0,0,0,0,0,0,0,0,0.3188,0.3087,0.333,0.3362,0.3366,0.3443,0.3444,0.3446,0.3469,0.3468,0.3468,0.3467,0.3569,0.3574,0.3579,0.3623,0,0,0.3594,0.3596,0,0,0,0,0,0,0,0,0.3182,0.3196,0.3355,0.336,0.3365,0.3445,0.3395,0.3506,0.3469,0.3426,0.3467,0.3467,0.3532,0.354,0.3557,0.3628,0.3633,0.3594,0.3597,0.3599,0.3601,0,0,0,0,0,0,0,0.3174,0.3191,0.3371,0.3357,0.3363,0.3352,0.3367,0.3416,0.3478,0.3429,0.3432,0.3452,0.3533,0.3552,0.356,0.3634,0.3594,0.3598,0.3601,0.3603,0.3769,0.377,0,0,0,0,0,0,0.3173,0.3185,0.3367,0.3375,0.3274,0.3358,0.3374,0.3416,0.3478,0.3488,0.3452,0.3452,0.3544,0.3554,0.3563,0.3628,0.3599,0.3604,0.3606,0.3767,0.3769,0.3771,0,0,0,0,0,0,0.3168,0.3189,0.3363,0.3283,0.3305,0.3364,0.3411,0.3419,0.3441,0.3496,0.3505,0.3466,0.3544,0.3556,0.3615,0.3631,0.3606,0.361,0.3765,0.3768,0.377,0.3751,0,0,0,0,0,0,0.3161,0.3187,0.3214,0.3285,0.331,0.3415,0.3412,0.3422,0.3456,0.3457,0.3511,0.352,0.3544,0.3608,0.362,0.3638,0.3614,0.3764,0.3767,0.3769,0.375,0.3752,0.3755,0,0,0,0,0,0.3152,0.3197,0.3215,0.3236,0.3347,0.3417,0.3428,0.3463,0.3457,0.3476,0.3511,0.3518,0.3634,0.3613,0.3627,0.3646,0.3762,0.3766,0.3769,0.3749,0.3752,0.3755,0,0,0,0,0,0,0.3106,0.3207,0.3227,0.3302,0.3356,0.3422,0.3449,0.3466,0.3508,0.3507,0.3542,0.3554,0.3608,0.3638,0.3614,0.3704,0.3698,0.3705,0.3678,0.3682,0.3684,0.3701,0.3618,0,0,0,0,0,0.3109,0.317,0.325,0.3309,0.3337,0.3389,0.342,0.3444,0.3494,0.3511,0.3545,0.3589,0.3635,0.3665,0.3707,0.3764,0.3826,0.3787,0.3789,0.3791,0.3816,0.3896,0.3908,0.3782,0.3782,0.3782,0,0,0.3108,0.3171,0.3206,0.3302,0.3345,0.34,0.3405,0.3459,0.3497,0.3518,0.3571,0.3597,0.3651,0.3706,0.3734,0.3734,0.3867,0.3795,0.3796,0.3821,0.3901,0.3913,0.3924,0.3784,0.3784,0.3783,0,0,0.3138,0.3193,0.325,0.3299,0.3374,0.3407,0.3422,0.3488,0.3508,0.3567,0.3584,0.3633,0.3698,0.3745,0.3776,0.3827,0.3871,0.3824,0.3858,0.3934,0.3945,0.3956,0.4081,0.4102,0.3831,0.3831,0.3831,0,0.313,0.3223,0.3272,0.3336,0.3378,0.341,0.3467,0.3499,0.357,0.3596,0.3583,0.3692,0.3726,0.3811,0.382,0.3834,0.3892,0.3834,0.3937,0.3948,0.3959,0.4084,0.4108,0.3831,0.3831,0.3831,0.3831,0,0.3208,0.3272,0.3308,0.3401,0.3443,0.3499,0.355,0.3586,0.3601,0.3632,0.3702,0.375,0.382,0.3827,0.3839,0.393,0.3954,0.3921,0.3923,0.397,0.41,0.4126,0.383,0.383,0.383,0.3831,0,0,0.3228,0.334,0.3355,0.3396,0.3482,0.3526,0.3585,0.3654,0.3695,0.3736,0.38,0.3864,0.3875,0.3914,0.3932,0.3993,0.412,0.3985,0.3989,0.4102,0.4328,0.437,0.4402,0.4085,0.4089,0.4092,0.4399,0,0.3276,0.3384,0.3432,0.3518,0.3574,0.3616,0.3667,0.3723,0.376,0.3823,0.3869,0.393,0.3911,0.3943,0.4002,0.408,0.4181,0.4044,0.4274,0.4283,0.4306,0.443,0.4278,0.4539,0.4424,0.4428,0.4431,0,0.3349,0.3409,0.3499,0.3579,0.3606,0.3653,0.3737,0.3789,0.3871,0.39,0.3964,0.3992,0.4102,0.4061,0.4261,0.4165,0.4264,0.4325,0.4338,0.4403,0.4372,0.447,0.459,0.4399,0.447,0.4467,0.4464,0,0.3348,0.3457,0.3521,0.3555,0.365,0.3689,0.3733,0.3811,0.386,0.3954,0.4,0.4106,0.4179,0.4291,0.4415,0.4345,0.464,0.4563,0.4719,0.4724,0.466,0.4654,0.4616,0.4742,0.4741,0.474,0.4739,0,0.3395,0.3448,0.3523,0.3565,0.3625,0.3691,0.3759,0.3816,0.3909,0.3962,0.4036,0.4107,0.4231,0.4388,0.4484,0.4708,0.4716,0.4784,0.4816,0.4654,0.4644,0.4526,0.4422,0.4752,0.4749,0.4747,0.4745,0,0.3402,0.3454,0.3525,0.3611,0.363,0.3674,0.376,0.3812,0.3901,0.3982,0.4016,0.416,0.4363,0.4532,0.4755,0.4823,0.4886,0.509,0.4923,0.493,0.4857,0.476,0.4722,0.4596,0.532,0.5323,0.5325,0,0.3423,0.3465,0.3537,0.3559,0.3598,0.366,0.3699,0.3793,0.3841,0.3995,0.4033,0.4261,0.4411,0.4803,0.4972,0.5245,0.5016,0.5244,0.5081,0.4888,0.4803,0.4587,0.4463,0.5011,0.501,0.501,0.501,0,0.3455,0.3473,0.3519,0.3558,0.3595,0.363,0.3688,0.3723,0.3825,0.3936,0.4084,0.4232,0.459,0.4787,0.5138,0.5255,0.4958,0.5251,0.5067,0.4601,0.4347,0.4226,0.4806,0.5008,0.5008,0.5009,0.5009,0.5009,0.3462,0.3485,0.3527,0.3554,0.3582,0.3587,0.3589,0.3665,0.376,0.387,0.4051,0.4248,0.4524,0.4998,0.5071,0.5068,0.503,0.4954,0.4881,0.4702,0.4467,0.5088,0.5296,0.5298,0.53,0.5301,0.5302,0,0.3465,0.3486,0.3519,0.3531,0.3524,0.3553,0.3571,0.3553,0.3625,0.3794,0.3958,0.4253,0.4458,0.4626,0.4783,0.4689,0.4467,0.4558,0.415,0.4069,0.4653,0.4519,0.4544,0.4544,0.4544,0.4544,0.4544,0.4545,0.3466,0.3484,0.3491,0.3464,0.3465,0.3414,0.34,0.3395,0.347,0.3591,0.3749,0.3948,0.419,0.4364,0.4291,0.4213,0.3846,0.3772,0.3717,0.404,0.4065,0.409,0.3936,0.3838,0.3837,0.297,0.2963,0.2958]},{"header":{"parameterUnit":"m.s-1","parameterCategory":2,"la1":30.2991,"la2":30.254,"lo1":-89.0895,"lo2":-89.0444,"dy":0.0017,"dx":0.0017,"nx":28,"ny":28,"refTime":"2024-06-10T21:00:00:Z","depth":"0","parameterNumber":3,"parameterNumberName":"V-component_of_CURRENTS"},"data":[0,0,0,0,0,0,0,0,0,0,0,0,0,0,0,0,0,0,0,0,0,0,0,0,0,0,0,0,0,0,0,0,0,0,0,0,0,0,0,0,0,0,0,0,0,0,0,0,0,0,0,0,0,0,0,0,0,0,-0.0532,-0.0534,0,-0.0692,-0.0693,-0.0695,-0.0745,-0.0744,-0.0744,-0.0743,-0.0865,-0.0869,-0.0872,0,0,0,0,0,0,0,0,0,0,0,0,0,-0.0274,-0.0278,-0.0532,-0.0534,-0.0536,-0.0691,-0.0693,-0.0695,-0.0745,-0.0744,-0.0744,-0.0743,-0.0864,-0.0868,-0.0873,0,0,0,0,0,0,0,0,0,0,0,0,0,-0.0403,-0.0279,-0.0531,-0.0581,-0.0587,-0.0691,-0.0694,-0.0696,-0.0745,-0.0744,-0.0743,-0.0743,-0.0862,-0.0868,-0.0873,-0.0925,0,0,-0.0891,-0.0893,0,0,0,0,0,0,0,0,-0.0395,-0.0412,-0.0572,-0.0578,-0.0585,-0.0699,-0.0647,-0.0772,-0.0745,-0.0683,-0.0743,-0.0742,-0.0808,-0.0818,-0.0848,-0.0931,-0.0936,-0.0891,-0.0895,-0.0897,-0.0899,0,0,0,0,0,0,0,-0.0386,-0.0406,-0.0593,-0.0574,-0.0582,-0.0597,-0.0614,-0.0671,-0.0746,-0.0688,-0.0693,-0.0714,-0.0811,-0.0842,-0.0851,-0.0938,-0.0891,-0.0896,-0.0899,-0.0902,-0.1066,-0.1067,0,0,0,0,0,0,-0.0373,-0.0398,-0.0588,-0.0598,-0.0489,-0.0603,-0.0622,-0.0662,-0.0746,-0.076,-0.0715,-0.0716,-0.0833,-0.0844,-0.0855,-0.09,-0.0897,-0.0902,-0.0905,-0.1066,-0.1067,-0.1068,0,0,0,0,0,0,-0.0367,-0.0389,-0.0582,-0.0501,-0.0527,-0.0608,-0.0653,-0.0666,-0.0699,-0.0767,-0.0779,-0.0735,-0.0833,-0.0847,-0.0914,-0.0905,-0.0905,-0.091,-0.1064,-0.1066,-0.1067,-0.1003,0,0,0,0,0,0,-0.0359,-0.0386,-0.0409,-0.0501,-0.0531,-0.0643,-0.0654,-0.0669,-0.0715,-0.0718,-0.0789,-0.08,-0.0833,-0.0905,-0.0919,-0.0913,-0.0914,-0.1063,-0.1065,-0.1067,-0.1003,-0.1002,-0.1,0,0,0,0,0,-0.035,-0.039,-0.0409,-0.0432,-0.0561,-0.0644,-0.0661,-0.0713,-0.0716,-0.0737,-0.0786,-0.0797,-0.0926,-0.0911,-0.0927,-0.0922,-0.1062,-0.1064,-0.1067,-0.1004,-0.1002,-0.1,0,0,0,0,0,0,-0.0291,-0.0402,-0.0424,-0.0496,-0.0561,-0.0653,-0.0684,-0.0714,-0.0772,-0.0771,-0.0823,-0.0838,-0.089,-0.0927,-0.0909,-0.0978,-0.0991,-0.0997,-0.0938,-0.0937,-0.0935,-0.087,-0.0919,0,0,0,0,0,-0.0289,-0.0351,-0.0441,-0.0499,-0.0529,-0.0603,-0.0642,-0.0677,-0.0742,-0.0766,-0.0815,-0.0867,-0.0915,-0.094,-0.0994,-0.104,-0.1013,-0.1046,-0.1045,-0.1043,-0.1003,-0.097,-0.0959,-0.1075,-0.1075,-0.1075,0,0,-0.0283,-0.0353,-0.0388,-0.0491,-0.0545,-0.058,-0.0624,-0.0686,-0.0706,-0.0771,-0.0815,-0.087,-0.0929,-0.0976,-0.1001,-0.1002,-0.0998,-0.1046,-0.1043,-0.1004,-0.0971,-0.0959,-0.0948,-0.1077,-0.1076,-0.1076,0,0,-0.0292,-0.0362,-0.0403,-0.0452,-0.0533,-0.0576,-0.0589,-0.0676,-0.0704,-0.0766,-0.0805,-0.0845,-0.0941,-0.096,-0.0986,-0.1009,-0.0995,-0.1043,-0.0974,-0.0943,-0.0932,-0.0921,-0.0866,-0.085,-0.1035,-0.1035,-0.1035,0,-0.0276,-0.0337,-0.0424,-0.046,-0.0486,-0.0564,-0.0579,-0.063,-0.0723,-0.073,-0.0769,-0.086,-0.0919,-0.0932,-0.0945,-0.0997,-0.0973,-0.0973,-0.0934,-0.0923,-0.0913,-0.0859,-0.0843,-0.1032,-0.1033,-0.1033,-0.1033,0,-0.0306,-0.0339,-0.0366,-0.043,-0.047,-0.0504,-0.0569,-0.0602,-0.0644,-0.0681,-0.0718,-0.0798,-0.083,-0.0873,-0.0921,-0.0888,-0.0891,-0.0936,-0.0923,-0.0896,-0.0843,-0.0827,-0.1028,-0.1029,-0.103,-0.1031,0,0,-0.0297,-0.0369,-0.0371,-0.0364,-0.0447,-0.0473,-0.0505,-0.0539,-0.052,-0.0612,-0.0584,-0.0686,-0.0708,-0.0736,-0.0796,-0.0783,-0.0711,-0.0826,-0.0825,-0.0739,-0.0615,-0.0613,-0.0596,-0.075,-0.0747,-0.0745,-0.0602,0,-0.0279,-0.0302,-0.0354,-0.0346,-0.0347,-0.0406,-0.0414,-0.0452,-0.049,-0.0487,-0.0552,-0.0562,-0.0663,-0.0664,-0.0669,-0.0706,-0.0669,-0.0743,-0.068,-0.0676,-0.0652,-0.0577,-0.0543,-0.0412,-0.0586,-0.0584,-0.0582,0,-0.027,-0.0283,-0.0268,-0.0259,-0.0264,-0.0266,-0.0255,-0.0275,-0.0299,-0.0323,-0.0343,-0.0397,-0.0401,-0.0487,-0.0484,-0.053,-0.0549,-0.0576,-0.0572,-0.057,-0.0644,-0.0472,-0.0377,-0.0624,-0.0558,-0.056,-0.0561,0,-0.0183,-0.0205,-0.0176,-0.0184,-0.0204,-0.0186,-0.0189,-0.021,-0.0192,-0.0195,-0.0164,-0.0209,-0.0194,-0.0243,-0.0328,-0.0391,-0.0305,-0.0399,-0.04,-0.04,-0.0353,-0.0354,-0.0456,-0.0348,-0.0348,-0.0348,-0.0349,0,-0.0128,-0.0095,-0.0122,-0.0103,-0.0041,-0.0087,-0.002,-0.0033,-0.0017,0.005,-0.0052,0.0011,-0.013,-0.013,-0.0229,-0.0246,-0.0218,-0.0337,-0.0349,-0.0334,-0.0335,-0.0537,-0.0669,-0.0343,-0.0344,-0.0345,-0.0346,0,-0.0023,-0.005,-0.0003,-0.0004,0.0005,0.0057,0.009,0.0145,0.0142,0.0236,0.0251,0.0217,0.023,0.0101,0.0052,-0.0083,-0.0222,-0.0136,-0.01,-0.0111,-0.0384,-0.0511,-0.0526,-0.0613,-0.0105,-0.0104,-0.0103,0,0.0035,0.0065,0.0086,0.0124,0.0133,0.0188,0.0236,0.0233,0.029,0.0378,0.0447,0.0482,0.0553,0.0469,0.0249,0.0131,-0.0106,0.0031,-0.0096,-0.0349,-0.05,-0.0596,-0.0678,-0.0002,-0.0,0.0001,0.0002,0,0.0156,0.0159,0.019,0.0261,0.032,0.0381,0.0446,0.0522,0.0553,0.067,0.0838,0.0923,0.0823,0.0734,0.0501,0.0349,-0.0135,0.0055,-0.021,-0.0407,-0.0508,-0.0615,-0.0149,0.0014,0.0013,0.0012,0.0012,0.0011,0.0261,0.0307,0.0342,0.0418,0.0485,0.0589,0.0688,0.0786,0.0953,0.1176,0.1187,0.1411,0.1135,0.0842,0.0558,0.0001,-0.001,-0.0183,-0.0301,-0.0364,-0.05,0.0002,0.0131,0.013,0.013,0.0129,0.0129,0,0.0399,0.043,0.05,0.0601,0.0711,0.0699,0.0842,0.0973,0.1238,0.1475,0.1685,0.1747,0.1383,0.0896,0.0177,-0.027,-0.0471,-0.0546,-0.0707,-0.0765,-0.0305,-0.0362,-0.0332,-0.0332,-0.0331,-0.0331,-0.0331,-0.0331,0.0478,0.0566,0.0587,0.0788,0.0865,0.1033,0.1136,0.1347,0.1539,0.1923,0.2137,0.2251,0.1851,0.0495,-0.0509,-0.0753,-0.1094,-0.1116,-0.1314,-0.1076,-0.1054,-0.1033,-0.1123,-0.1252,-0.1253,-0.1723,-0.1728,-0.1732]}],[{"header":{"parameterUnit":"m.s-1","parameterCategory":2,"la1":30.2991,"la2":30.254,"lo1":-89.0895,"lo2":-89.0444,"dy":0.0017,"dx":0.0017,"nx":28,"ny":28,"refTime":"2024-06-10T21:00:00:Z","depth":"2","parameterNumber":2,"parameterNumberName":"U-component_of_CURRENTS"},"data":[0,0,0,0,0,0,0,0,0,0,0,0,0,0,0,0,0,0,0,0,0,0,0,0,0,0,0,0,0,0,0,0,0,0,0,0,0,0,0,0,0,0,0,0,0,0,0,0,0,0,0,0,0,0,0,0,0,0,0.2136,0.2136,0,0.2057,0.2056,0.2055,0.2115,0.2118,0.212,0.2123,0.208,0.2077,0.2073,0,0,0,0,0,0,0,0,0,0,0,0,0,0.2247,0.2245,0.2136,0.2136,0.2135,0.2057,0.2056,0.2054,0.2114,0.2118,0.2121,0.2124,0.2082,0.2077,0.2073,0,0,0,0,0,0,0,0,0,0,0,0,0,0.2184,0.2244,0.2137,0.2158,0.2159,0.2057,0.2056,0.2054,0.2113,0.2118,0.2122,0.2126,0.2083,0.2078,0.2072,0.195,0,0,0.2054,0.2052,0,0,0,0,0,0,0,0,0.2187,0.2179,0.2155,0.2156,0.2157,0.2103,0.2079,0.2022,0.2112,0.2128,0.2123,0.2128,0.209,0.2084,0.2055,0.1948,0.1946,0.2054,0.205,0.2048,0.2046,0,0,0,0,0,0,0,0.2192,0.2182,0.2102,0.2154,0.2155,0.2139,0.2136,0.2068,0.2084,0.2127,0.2131,0.2126,0.2091,0.206,0.2054,0.1946,0.2054,0.2049,0.2045,0.2043,0.196,0.1961,0,0,0,0,0,0,0.2207,0.2186,0.2105,0.21,0.2187,0.2134,0.213,0.2113,0.2084,0.2084,0.2122,0.2129,0.2068,0.2061,0.2053,0.2082,0.2048,0.2043,0.2039,0.1958,0.196,0.1961,0,0,0,0,0,0,0.2209,0.2199,0.2108,0.2145,0.2133,0.2129,0.2109,0.211,0.2129,0.2081,0.2082,0.2149,0.2071,0.2061,0.2052,0.2075,0.204,0.2035,0.1957,0.1959,0.196,0.2027,0,0,0,0,0,0,0.2212,0.22,0.2202,0.2145,0.2131,0.2083,0.2105,0.2105,0.2118,0.2127,0.2102,0.21,0.2073,0.2061,0.2046,0.2066,0.203,0.1955,0.1958,0.196,0.2023,0.2031,0.2037,0,0,0,0,0,0.2216,0.2183,0.2202,0.2193,0.213,0.2083,0.2074,0.2084,0.2116,0.2119,0.2122,0.2103,0.2067,0.2056,0.2039,0.2058,0.1954,0.1957,0.196,0.202,0.2029,0.2037,0,0,0,0,0,0,0.2226,0.2185,0.2205,0.2163,0.2151,0.2096,0.2086,0.2099,0.2095,0.2116,0.2093,0.2089,0.209,0.2061,0.2051,0.2046,0.2015,0.2015,0.2068,0.2075,0.2082,0.2109,0.2026,0,0,0,0,0,0.2229,0.221,0.2175,0.2154,0.2142,0.2125,0.2112,0.2121,0.2104,0.2109,0.21,0.2092,0.2071,0.2071,0.2037,0.2013,0.2086,0.2024,0.2031,0.2037,0.205,0.2164,0.2184,0.197,0.197,0.197,0,0,0.2231,0.2207,0.22,0.2159,0.2143,0.2125,0.2128,0.2113,0.2126,0.2097,0.2118,0.2101,0.2069,0.2061,0.2061,0.2052,0.2154,0.2041,0.2046,0.2056,0.2169,0.219,0.2209,0.1972,0.1972,0.1971,0,0,0.2216,0.2202,0.2184,0.217,0.2155,0.2138,0.2148,0.2121,0.2143,0.2139,0.214,0.2152,0.2107,0.2106,0.2094,0.2114,0.2179,0.211,0.2171,0.2281,0.2301,0.2318,0.2521,0.2556,0.2124,0.2124,0.2124,0,0.2249,0.2204,0.2175,0.2156,0.2157,0.2155,0.2152,0.2145,0.2136,0.2157,0.2168,0.2162,0.2131,0.2143,0.2163,0.213,0.2243,0.2138,0.2294,0.2312,0.2329,0.2532,0.2569,0.2128,0.2127,0.2127,0.2127,0,0.2207,0.2197,0.2179,0.2171,0.2162,0.2154,0.2148,0.2164,0.2194,0.2202,0.2239,0.2216,0.2237,0.2219,0.2191,0.2284,0.2349,0.2285,0.2278,0.2355,0.2564,0.2603,0.2133,0.2132,0.2131,0.213,0,0,0.2244,0.2176,0.2182,0.2195,0.2177,0.2172,0.2185,0.2203,0.2251,0.2259,0.2337,0.2298,0.2331,0.2322,0.2308,0.2383,0.2611,0.2398,0.2402,0.2613,0.2962,0.285,0.2883,0.2589,0.2593,0.2597,0.3091,0,0.2253,0.2233,0.2189,0.2206,0.2204,0.2204,0.2228,0.2251,0.2282,0.2352,0.2364,0.2425,0.236,0.2413,0.2471,0.2556,0.2702,0.2489,0.2843,0.2855,0.2755,0.2916,0.2574,0.2968,0.3128,0.3135,0.3139,0,0.2244,0.2235,0.2252,0.2255,0.2257,0.2286,0.2352,0.2368,0.2434,0.2472,0.2531,0.2556,0.2668,0.2609,0.2854,0.2735,0.2877,0.2947,0.2967,0.2855,0.281,0.2898,0.3032,0.3203,0.3198,0.3193,0.3189,0,0.2309,0.2284,0.2317,0.2317,0.2317,0.2364,0.239,0.2438,0.2493,0.26,0.2691,0.2769,0.2901,0.3019,0.3148,0.3054,0.3446,0.3335,0.3396,0.3395,0.3164,0.3131,0.357,0.3569,0.3568,0.3567,0.3565,0,0.2338,0.236,0.2371,0.2394,0.2468,0.2453,0.2557,0.2581,0.2676,0.2767,0.2804,0.293,0.3014,0.3205,0.3281,0.348,0.3588,0.3468,0.3508,0.3183,0.3147,0.3351,0.3319,0.3585,0.3581,0.3578,0.3574,0,0.24,0.2396,0.2439,0.2477,0.2506,0.258,0.2674,0.2735,0.2832,0.2971,0.3039,0.3172,0.341,0.3512,0.376,0.3697,0.3856,0.3915,0.3568,0.355,0.3723,0.3689,0.4053,0.4053,0.4053,0.4053,0.4053,0,0.2411,0.2449,0.2531,0.2581,0.2616,0.2714,0.2775,0.2837,0.2899,0.3106,0.3186,0.3461,0.3587,0.3911,0.387,0.4038,0.4064,0.3797,0.348,0.3768,0.3772,0.3737,0.3704,0.3284,0.3277,0.3272,0.3268,0,0.2433,0.2497,0.2537,0.2643,0.273,0.2803,0.2897,0.2962,0.3038,0.3186,0.3379,0.3512,0.3753,0.3688,0.3829,0.3842,0.3696,0.3694,0.4153,0.3144,0.3061,0.3056,0.3047,0.3222,0.3227,0.323,0.3233,0.3234,0.2448,0.2491,0.2552,0.2653,0.2761,0.2831,0.2843,0.2938,0.3043,0.3073,0.3313,0.3349,0.3408,0.3395,0.3398,0.3363,0.3592,0.3374,0.3383,0.34,0.3152,0.3063,0.3191,0.3195,0.3199,0.3202,0.3205,0,0.2355,0.2421,0.2528,0.2593,0.2659,0.2768,0.2847,0.2792,0.2849,0.2887,0.2964,0.2738,0.2763,0.2876,0.2744,0.2771,0.2678,0.267,0.2494,0.2544,0.2587,0.2287,0.2105,0.2101,0.2098,0.2095,0,0,0.2294,0.231,0.2365,0.2418,0.2521,0.2509,0.2533,0.2514,0.2493,0.2349,0.2279,0.2407,0.267,0.2265,0.2292,0.217,0.231,0.2087,0.297,0.2803,0.284,0.3006,0.2604,0,0,0,0,0]},{"header":{"parameterUnit":"m.s-1","parameterCategory":2,"la1":30.2991,"la2":30.254,"lo1":-89.0895,"lo2":-89.0444,"dy":0.0017,"dx":0.0017,"nx":28,"ny":28,"refTime":"2024-06-10T21:00:00:Z","depth":"2","parameterNumber":3,"parameterNumberName":"V-component_of_CURRENTS"},"data":[0,0,0,0,0,0,0,0,0,0,0,0,0,0,0,0,0,0,0,0,0,0,0,0,0,0,0,0,0,0,0,0,0,0,0,0,0,0,0,0,0,0,0,0,0,0,0,0,0,0,0,0,0,0,0,0,0,0,-0.0537,-0.0539,0,-0.0678,-0.068,-0.0681,-0.0763,-0.0764,-0.0764,-0.0765,-0.0886,-0.0889,-0.0892,0,0,0,0,0,0,0,0,0,0,0,0,0,-0.0304,-0.0308,-0.0537,-0.0539,-0.0541,-0.0678,-0.068,-0.0681,-0.0763,-0.0764,-0.0764,-0.0765,-0.0885,-0.0889,-0.0892,0,0,0,0,0,0,0,0,0,0,0,0,0,-0.0419,-0.0309,-0.0537,-0.06,-0.0607,-0.0678,-0.068,-0.0682,-0.0763,-0.0764,-0.0764,-0.0765,-0.0884,-0.0888,-0.0892,-0.0903,0,0,-0.0905,-0.0907,0,0,0,0,0,0,0,0,-0.0413,-0.0428,-0.0588,-0.0595,-0.0604,-0.0706,-0.0642,-0.0755,-0.0763,-0.0701,-0.0765,-0.0766,-0.0825,-0.0834,-0.0856,-0.0908,-0.0914,-0.0905,-0.0908,-0.091,-0.0911,0,0,0,0,0,0,0,-0.0405,-0.0422,-0.0591,-0.059,-0.06,-0.0609,-0.0627,-0.0664,-0.0755,-0.0707,-0.0714,-0.0732,-0.0829,-0.0852,-0.086,-0.0915,-0.0905,-0.0909,-0.0912,-0.0913,-0.1005,-0.1005,0,0,0,0,0,0,-0.0393,-0.0415,-0.0586,-0.0595,-0.051,-0.0613,-0.0632,-0.067,-0.0755,-0.077,-0.0732,-0.0736,-0.0844,-0.0855,-0.0864,-0.0914,-0.091,-0.0914,-0.0916,-0.1005,-0.1005,-0.1005,0,0,0,0,0,0,-0.0388,-0.0408,-0.0581,-0.0508,-0.0531,-0.0617,-0.0659,-0.0673,-0.0715,-0.0775,-0.0789,-0.0761,-0.0845,-0.0858,-0.0907,-0.0918,-0.0915,-0.0919,-0.1005,-0.1005,-0.1005,-0.0992,0,0,0,0,0,0,-0.0381,-0.0405,-0.0433,-0.0508,-0.0535,-0.0623,-0.0659,-0.0675,-0.0725,-0.0733,-0.0804,-0.0816,-0.0847,-0.0901,-0.0911,-0.0923,-0.0922,-0.1005,-0.1005,-0.1005,-0.0992,-0.0991,-0.099,0,0,0,0,0,-0.0372,-0.0406,-0.0434,-0.0455,-0.057,-0.0623,-0.0637,-0.0698,-0.0726,-0.074,-0.0791,-0.0815,-0.0907,-0.0904,-0.0917,-0.093,-0.1005,-0.1005,-0.1005,-0.0993,-0.0991,-0.099,0,0,0,0,0,0,-0.0325,-0.042,-0.0452,-0.0516,-0.0565,-0.0638,-0.0664,-0.0704,-0.0757,-0.0768,-0.0822,-0.0836,-0.0878,-0.0903,-0.0899,-0.0953,-0.0957,-0.0959,-0.0943,-0.0943,-0.0942,-0.0914,-0.0926,0,0,0,0,0,-0.0326,-0.038,-0.0453,-0.0506,-0.0526,-0.0595,-0.0628,-0.0668,-0.0723,-0.075,-0.0807,-0.0853,-0.0884,-0.0913,-0.0945,-0.0983,-0.0966,-0.0996,-0.0995,-0.0994,-0.0978,-0.0961,-0.0957,-0.1005,-0.1005,-0.1005,0,0,-0.0328,-0.0384,-0.0419,-0.0499,-0.0543,-0.0569,-0.0617,-0.0666,-0.0697,-0.0752,-0.0816,-0.0853,-0.089,-0.0929,-0.095,-0.0957,-0.097,-0.0994,-0.0993,-0.0977,-0.0961,-0.0956,-0.0952,-0.1005,-0.1005,-0.1005,0,0,-0.0331,-0.0399,-0.0428,-0.0459,-0.0521,-0.0563,-0.0577,-0.0655,-0.0697,-0.0756,-0.0794,-0.0833,-0.0908,-0.0929,-0.0947,-0.0957,-0.096,-0.0977,-0.0962,-0.0946,-0.0942,-0.0938,-0.0899,-0.0891,-0.0984,-0.0984,-0.0984,0,-0.033,-0.0377,-0.0441,-0.0457,-0.0481,-0.0556,-0.0568,-0.0619,-0.0709,-0.0736,-0.0771,-0.0854,-0.0898,-0.0917,-0.0931,-0.0955,-0.0939,-0.0967,-0.0944,-0.0939,-0.0935,-0.0897,-0.0888,-0.0983,-0.0984,-0.0984,-0.0984,0,-0.0337,-0.037,-0.0384,-0.0435,-0.0464,-0.0492,-0.0554,-0.0599,-0.0663,-0.0715,-0.0764,-0.0822,-0.0867,-0.0891,-0.0925,-0.0922,-0.0917,-0.0938,-0.0944,-0.0929,-0.089,-0.0881,-0.0982,-0.0983,-0.0983,-0.0983,0,0,-0.0358,-0.0385,-0.0393,-0.0391,-0.0452,-0.0475,-0.0518,-0.0572,-0.0592,-0.0682,-0.0699,-0.0778,-0.0816,-0.0836,-0.0879,-0.088,-0.0853,-0.0906,-0.0905,-0.0861,-0.0799,-0.0794,-0.0784,-0.0876,-0.0875,-0.0874,-0.0778,0,-0.0348,-0.0352,-0.0379,-0.0385,-0.0385,-0.044,-0.0467,-0.0523,-0.0585,-0.0621,-0.0681,-0.0709,-0.0793,-0.0804,-0.0828,-0.0836,-0.0832,-0.0875,-0.0824,-0.0821,-0.0814,-0.0775,-0.0765,-0.0679,-0.077,-0.0768,-0.0767,0,-0.0344,-0.0346,-0.034,-0.034,-0.0346,-0.0361,-0.0401,-0.0432,-0.0492,-0.0532,-0.058,-0.0628,-0.0652,-0.0715,-0.0729,-0.0756,-0.0779,-0.0787,-0.0783,-0.0775,-0.0801,-0.0711,-0.0661,-0.0754,-0.0755,-0.0756,-0.0757,0,-0.0311,-0.0317,-0.0309,-0.0312,-0.033,-0.0336,-0.0354,-0.0409,-0.0403,-0.0459,-0.0438,-0.0518,-0.0498,-0.0564,-0.062,-0.067,-0.0604,-0.0672,-0.068,-0.0679,-0.0655,-0.0655,-0.0663,-0.0663,-0.0664,-0.0664,-0.0664,0,-0.0287,-0.0277,-0.0289,-0.028,-0.0256,-0.0291,-0.0272,-0.0306,-0.0308,-0.0255,-0.0378,-0.0317,-0.0457,-0.0455,-0.0553,-0.0572,-0.0552,-0.0651,-0.065,-0.065,-0.065,-0.0712,-0.0719,-0.066,-0.0661,-0.0662,-0.0662,0,-0.0245,-0.0259,-0.023,-0.0237,-0.0233,-0.0215,-0.0178,-0.015,-0.0174,-0.0092,-0.0085,-0.0124,-0.0119,-0.0243,-0.0298,-0.0433,-0.0484,-0.0495,-0.0477,-0.0478,-0.0589,-0.0596,-0.0503,-0.0502,-0.0501,-0.05,-0.05,0,-0.0214,-0.0202,-0.0182,-0.0147,-0.0143,-0.0114,-0.0074,-0.0084,-0.0032,0.0054,0.0124,0.0149,0.021,0.0109,-0.0133,-0.0282,-0.0347,-0.0397,-0.0511,-0.0561,-0.057,-0.0579,-0.0588,-0.0464,-0.0464,-0.0463,-0.0462,0,-0.0148,-0.0153,-0.013,-0.0064,-0.0014,0.0061,0.0118,0.0193,0.0225,0.0334,0.0501,0.0577,0.0455,0.0303,0.0038,-0.01,-0.0394,-0.0388,-0.0408,-0.0521,-0.0522,-0.0532,-0.0542,-0.0456,-0.0457,-0.0457,-0.0457,-0.0458,-0.0093,-0.0064,-0.0039,0.0025,0.0106,0.0228,0.0313,0.0424,0.0579,0.0774,0.0811,0.0933,0.0669,0.0364,0.0094,-0.0264,-0.0271,-0.042,-0.0424,-0.0428,-0.0455,-0.0456,-0.038,-0.038,-0.0381,-0.0381,-0.0381,0,-0.0026,-0.001,0.0058,0.014,0.0254,0.028,0.044,0.0563,0.0796,0.0985,0.1167,0.0994,0.0809,0.0485,-0.0034,-0.0322,-0.0383,-0.0415,-0.0443,-0.0446,-0.045,-0.0482,-0.0412,-0.0413,-0.0414,-0.0414,0,0,0.0005,0.0058,0.0079,0.0246,0.0331,0.0505,0.0621,0.0843,0.0991,0.1228,0.13,0.1363,0.093,0.0564,0.0163,-0.0131,-0.0226,-0.019,-0.0137,-0.0127,-0.0127,-0.0426,-0.0475,0,0,0,0,0]}],[{"header":{"parameterUnit":"m.s-1","parameterCategory":2,"la1":30.2991,"la2":30.254,"lo1":-89.0895,"lo2":-89.0444,"dy":0.0017,"dx":0.0017,"nx":28,"ny":28,"refTime":"2024-06-10T21:00:00:Z","depth":"4","parameterNumber":2,"parameterNumberName":"U-component_of_CURRENTS"},"data":[0,0,0,0,0,0,0,0,0,0,0,0,0,0,0,0,0,0,0,0,0,0,0,0,0,0,0,0,0,0,0,0,0,0,0,0,0,0,0,0,0,0,0,0,0,0,0,0,0,0,0,0,0,0,0,0,0,0,0.0448,0.0449,0,0.0487,0.0488,0.0488,0.0517,0.0518,0.0518,0.0519,0.0684,0.0688,0.0691,0,0,0,0,0,0,0,0,0,0,0,0,0,0.0433,0.0433,0.0448,0.0449,0.045,0.0487,0.0488,0.0488,0.0517,0.0518,0.0519,0.0519,0.0682,0.0687,0.0692,0,0,0,0,0,0,0,0,0,0,0,0,0,0.045,0.0433,0.0448,0.0471,0.0474,0.0487,0.0488,0.0488,0.0517,0.0518,0.0519,0.0519,0.0681,0.0687,0.0692,0.0713,0,0,0.071,0.0713,0,0,0,0,0,0,0,0,0.0449,0.045,0.0467,0.0469,0.0472,0.0501,0.0543,0.057,0.0517,0.0498,0.0519,0.052,0.0636,0.0645,0.0645,0.0721,0.0728,0.0711,0.0714,0.0717,0.0719,0,0,0,0,0,0,0,0.0448,0.0449,0.0461,0.0468,0.0471,0.0491,0.0494,0.0548,0.0562,0.0499,0.0502,0.0511,0.0638,0.0639,0.0649,0.073,0.0711,0.0716,0.0719,0.0722,0.0846,0.0846,0,0,0,0,0,0,0.0446,0.0448,0.046,0.0462,0.0466,0.0491,0.0494,0.0489,0.0559,0.057,0.051,0.0512,0.0629,0.0643,0.0656,0.0787,0.0717,0.0722,0.0726,0.0846,0.0846,0.0846,0,0,0,0,0,0,0.0445,0.0446,0.0458,0.0459,0.0463,0.049,0.0484,0.0489,0.0518,0.0566,0.0579,0.0538,0.063,0.0647,0.0719,0.079,0.0725,0.073,0.0846,0.0846,0.0846,0.0984,0,0,0,0,0,0,0.0444,0.0445,0.0445,0.0458,0.0462,0.0489,0.0484,0.0489,0.0522,0.0525,0.0594,0.0608,0.0632,0.071,0.0725,0.0797,0.0735,0.0847,0.0846,0.0846,0.0979,0.0988,0.0996,0,0,0,0,0,0.0443,0.0438,0.0444,0.0446,0.0459,0.049,0.0495,0.0515,0.0523,0.0542,0.0581,0.0607,0.0717,0.0715,0.0732,0.0808,0.0847,0.0846,0.0846,0.0976,0.0986,0.0995,0,0,0,0,0,0,0.0426,0.0441,0.0448,0.0445,0.0478,0.0497,0.0515,0.053,0.0572,0.0584,0.0623,0.064,0.0732,0.0724,0.0721,0.0827,0.0779,0.0782,0.0872,0.0882,0.089,0.0912,0.074,0,0,0,0,0,0.0422,0.0424,0.0451,0.0452,0.0472,0.0499,0.0516,0.0535,0.0571,0.059,0.0638,0.0677,0.0735,0.0773,0.0813,0.0882,0.0877,0.0926,0.0934,0.0942,0.0962,0.1003,0.102,0.0844,0.0844,0.0844,0,0,0.0413,0.0424,0.0423,0.045,0.0475,0.0517,0.0511,0.055,0.0589,0.0605,0.0679,0.0724,0.0756,0.0837,0.0874,0.085,0.0983,0.0941,0.0949,0.0965,0.1005,0.1023,0.1039,0.0844,0.0844,0.0844,0,0,0.0408,0.0413,0.0425,0.0457,0.0506,0.0536,0.0557,0.0601,0.0627,0.07,0.0723,0.0798,0.0874,0.0917,0.0947,0.1013,0.1029,0.1024,0.11,0.114,0.1157,0.1171,0.1177,0.1191,0.1025,0.1025,0.1025,0,0.0402,0.0417,0.0436,0.0469,0.0504,0.0553,0.0596,0.0632,0.0694,0.0731,0.0739,0.087,0.0914,0.1016,0.1053,0.1045,0.1056,0.1078,0.1158,0.1172,0.1185,0.1187,0.1201,0.1032,0.1031,0.103,0.103,0,0.0409,0.0439,0.0456,0.0517,0.0557,0.0603,0.0664,0.0717,0.0771,0.0815,0.0927,0.0981,0.1064,0.109,0.1117,0.1229,0.1204,0.1176,0.1152,0.1213,0.1208,0.1221,0.1041,0.1039,0.1037,0.1035,0,0,0.0366,0.0445,0.0456,0.0496,0.059,0.0623,0.0707,0.0797,0.086,0.0941,0.104,0.1148,0.1196,0.1229,0.1264,0.1315,0.143,0.1309,0.1308,0.1346,0.1515,0.1483,0.1492,0.1437,0.144,0.1442,0.1474,0,0.038,0.0434,0.0483,0.0567,0.061,0.069,0.076,0.0846,0.0933,0.1044,0.1126,0.125,0.124,0.1329,0.1373,0.1443,0.147,0.1423,0.1421,0.142,0.1413,0.1508,0.1452,0.1482,0.1485,0.1487,0.1488,0,0.0383,0.0421,0.0483,0.0592,0.0621,0.069,0.0821,0.0895,0.105,0.1126,0.1255,0.1344,0.1492,0.146,0.1565,0.1547,0.1546,0.1558,0.1558,0.1495,0.1413,0.1405,0.151,0.1508,0.1507,0.1505,0.1504,0,0.0331,0.0434,0.048,0.0514,0.0636,0.0697,0.0791,0.0927,0.1003,0.1223,0.1319,0.1469,0.1581,0.1623,0.1699,0.1653,0.1791,0.1704,0.1642,0.1636,0.1594,0.1578,0.174,0.174,0.174,0.174,0.174,0,0.0324,0.0367,0.0466,0.0488,0.0571,0.0678,0.0788,0.0906,0.108,0.1194,0.1373,0.1476,0.1639,0.1745,0.1754,0.1774,0.1825,0.1689,0.1666,0.1642,0.1632,0.1601,0.1585,0.1741,0.1741,0.1741,0.174,0,0.0261,0.032,0.0375,0.0496,0.0545,0.0609,0.0788,0.0867,0.1047,0.1213,0.1315,0.1532,0.1688,0.1805,0.1908,0.1838,0.187,0.184,0.1842,0.1812,0.165,0.164,0.1747,0.1747,0.1746,0.1746,0.1746,0,0.0233,0.0247,0.035,0.0384,0.0451,0.0561,0.0638,0.084,0.094,0.1208,0.1287,0.1531,0.1662,0.1763,0.188,0.1936,0.1889,0.1875,0.1736,0.1697,0.1663,0.1653,0.1643,0.1745,0.1745,0.1745,0.1745,0,0.0171,0.0198,0.0236,0.03,0.0383,0.0466,0.0615,0.0676,0.0916,0.1084,0.1263,0.141,0.1576,0.1707,0.1824,0.1823,0.1891,0.187,0.1867,0.1735,0.1696,0.166,0.1651,0.1744,0.1744,0.1745,0.1745,0,0.0119,0.0122,0.0161,0.0227,0.0301,0.037,0.0454,0.0604,0.0732,0.1052,0.1095,0.1342,0.154,0.1645,0.1729,0.1803,0.1718,0.1612,0.162,0.1623,0.1585,0.1516,0.1524,0,0,0,0,0,0.0081,0.0077,0.0098,0.0164,0.0225,0.0286,0.0437,0.0531,0.0758,0.0854,0.0987,0.1154,0.1347,0.1457,0.1506,0.165,0.1711,0.1696,0.1585,0.1739,0.174,0.1716,0,0,0,0,0,0,0.0052,0.0059,0.0065,0.0088,0.0126,0.0207,0.0296,0.0448,0.0518,0.0753,0.0862,0.106,0.1258,0.1313,0.1474,0.1517,0.1416,0.1856,0.1853,0.1738,0.1739,0.174,0.1716,0,0,0,0,0]},{"header":{"parameterUnit":"m.s-1","parameterCategory":2,"la1":30.2991,"la2":30.254,"lo1":-89.0895,"lo2":-89.0444,"dy":0.0017,"dx":0.0017,"nx":28,"ny":28,"refTime":"2024-06-10T21:00:00:Z","depth":"4","parameterNumber":3,"parameterNumberName":"V-component_of_CURRENTS"},"data":[0,0,0,0,0,0,0,0,0,0,0,0,0,0,0,0,0,0,0,0,0,0,0,0,0,0,0,0,0,0,0,0,0,0,0,0,0,0,0,0,0,0,0,0,0,0,0,0,0,0,0,0,0,0,0,0,0,0,0.0569,0.0569,0,0.0558,0.0557,0.0557,0.0546,0.0546,0.0546,0.0546,0.0523,0.0522,0.0522,0,0,0,0,0,0,0,0,0,0,0,0,0,0.0497,0.0499,0.0569,0.0569,0.0569,0.0558,0.0557,0.0557,0.0546,0.0546,0.0546,0.0546,0.0523,0.0522,0.0522,0,0,0,0,0,0,0,0,0,0,0,0,0,0.0509,0.05,0.0569,0.0564,0.0564,0.0558,0.0557,0.0557,0.0545,0.0546,0.0546,0.0546,0.0524,0.0523,0.0521,0.051,0,0,0.0518,0.0518,0,0,0,0,0,0,0,0,0.0508,0.0511,0.0565,0.0565,0.0565,0.0556,0.0524,0.0542,0.0545,0.0549,0.0546,0.0546,0.0535,0.0533,0.0526,0.0509,0.0508,0.0518,0.0517,0.0517,0.0516,0,0,0,0,0,0,0,0.0507,0.0511,0.0561,0.0565,0.0565,0.0535,0.0537,0.0527,0.0538,0.0549,0.0549,0.0553,0.0534,0.0527,0.0525,0.0508,0.0518,0.0517,0.0516,0.0516,0.0455,0.0454,0,0,0,0,0,0,0.052,0.0511,0.0561,0.0561,0.054,0.0537,0.0539,0.0556,0.0539,0.0537,0.0553,0.0552,0.0529,0.0527,0.0524,0.053,0.0517,0.0516,0.0515,0.0456,0.0455,0.0454,0,0,0,0,0,0,0.0519,0.0525,0.0562,0.0537,0.054,0.0539,0.0557,0.0556,0.0562,0.0542,0.054,0.0562,0.0529,0.0526,0.0523,0.0528,0.0515,0.0514,0.0457,0.0456,0.0455,0.0529,0,0,0,0,0,0,0.0517,0.0525,0.0546,0.0539,0.0542,0.0573,0.0557,0.0555,0.0565,0.0564,0.0549,0.0547,0.0529,0.0525,0.0522,0.0527,0.0513,0.0459,0.0457,0.0455,0.0527,0.053,0.0532,0,0,0,0,0,0.0515,0.0547,0.0547,0.0554,0.057,0.0574,0.0573,0.0569,0.0565,0.0574,0.0558,0.0548,0.051,0.0524,0.052,0.0525,0.0459,0.0457,0.0455,0.0526,0.0529,0.0532,0,0,0,0,0,0,0.0527,0.0549,0.0549,0.0587,0.0586,0.0574,0.0588,0.0579,0.0572,0.0575,0.0551,0.0547,0.0542,0.0516,0.0532,0.0495,0.0477,0.0474,0.0532,0.0535,0.0537,0.0543,0.0512,0,0,0,0,0,0.054,0.0574,0.0575,0.0606,0.061,0.0599,0.0603,0.0597,0.0589,0.0587,0.0574,0.0549,0.0527,0.0521,0.0499,0.0491,0.0434,0.0482,0.0485,0.0487,0.0485,0.0387,0.0381,0.0447,0.0447,0.0447,0,0,0.0557,0.0572,0.0593,0.0611,0.0612,0.0619,0.0602,0.0615,0.0616,0.0585,0.059,0.0566,0.0525,0.0514,0.0508,0.0498,0.044,0.0484,0.0488,0.0484,0.0384,0.0378,0.0372,0.0446,0.0446,0.0446,0,0,0.0591,0.0617,0.0647,0.0648,0.0656,0.0649,0.0657,0.0649,0.0646,0.0646,0.0613,0.0591,0.0571,0.0535,0.0514,0.0512,0.0458,0.0503,0.0525,0.043,0.0424,0.0418,0.0354,0.0341,0.0502,0.0502,0.0503,0,0.0606,0.0642,0.0653,0.0668,0.0674,0.0666,0.0678,0.0673,0.0663,0.0654,0.0658,0.0597,0.0576,0.0534,0.0537,0.0521,0.0464,0.0528,0.0435,0.0428,0.042,0.0355,0.0341,0.0506,0.0505,0.0505,0.0505,0,0.0642,0.0674,0.0692,0.0711,0.0716,0.0732,0.0722,0.0725,0.0723,0.0705,0.0678,0.064,0.06,0.0586,0.0571,0.0506,0.0483,0.0454,0.0436,0.0418,0.0351,0.0334,0.0511,0.0509,0.0508,0.0508,0,0,0.0668,0.071,0.0717,0.0731,0.0741,0.0747,0.0755,0.0749,0.0746,0.0729,0.0713,0.0672,0.0647,0.0619,0.0582,0.0508,0.0425,0.047,0.0463,0.0422,0.0229,0.023,0.0212,0.0377,0.0374,0.0372,0.0209,0,0.0691,0.0729,0.0743,0.0777,0.0792,0.0789,0.0793,0.0783,0.0774,0.0759,0.0707,0.0689,0.0659,0.0651,0.0568,0.0461,0.0382,0.0473,0.0238,0.0232,0.0246,0.0192,0.0363,0.0197,0.0193,0.019,0.0188,0,0.0711,0.0735,0.0772,0.0803,0.081,0.0836,0.0837,0.0841,0.0812,0.0802,0.0765,0.0728,0.0647,0.0622,0.0414,0.0472,0.0359,0.0268,0.0258,0.022,0.0201,0.0209,0.0157,0.016,0.0162,0.0164,0.0166,0,0.0705,0.0755,0.0789,0.0798,0.0827,0.0854,0.0878,0.0862,0.0869,0.0845,0.0837,0.0732,0.0686,0.0523,0.0362,0.0378,0.0117,0.0111,-0.0002,-0.0002,0.0018,0.0025,-0.0058,-0.0058,-0.0058,-0.0057,-0.0057,0,0.0709,0.0737,0.0803,0.0819,0.0866,0.0881,0.0917,0.0925,0.0927,0.0927,0.0873,0.0826,0.0654,0.05,0.0347,0.0122,0.0095,-0.0013,-0.0057,0.0055,0.0068,0.0007,0.0017,-0.0063,-0.0062,-0.0061,-0.006,0,0.0687,0.0726,0.0775,0.0838,0.087,0.0908,0.0983,0.1001,0.0998,0.0996,0.1,0.0883,0.0684,0.0495,0.0224,0.0107,-0.0102,-0.0177,-0.0031,-0.0061,-0.015,-0.0135,-0.0318,-0.032,-0.0321,-0.0322,-0.0323,0,0.0673,0.0698,0.0797,0.084,0.0886,0.0952,0.1,0.1045,0.1067,0.1013,0.1009,0.0848,0.0742,0.0353,0.0159,-0.0138,-0.0175,-0.0271,-0.022,-0.0159,-0.0184,-0.0166,-0.0149,-0.0325,-0.0326,-0.0326,-0.0326,0,0.0641,0.0692,0.0734,0.0834,0.0916,0.0986,0.1068,0.108,0.1104,0.111,0.0991,0.082,0.0588,0.0331,0.0104,-0.0108,-0.0199,-0.0286,-0.0284,-0.0237,-0.017,-0.0189,-0.0171,-0.0331,-0.033,-0.033,-0.033,0,0.0627,0.0661,0.0737,0.0818,0.0918,0.0992,0.103,0.1051,0.1071,0.1036,0.0983,0.0762,0.065,0.0342,0.0124,-0.0071,-0.0113,-0.0162,-0.0167,-0.0164,-0.0059,0.0052,-0.0096,0,0,0,0,0,0.0614,0.0655,0.0717,0.0813,0.0907,0.0977,0.1059,0.1085,0.1111,0.1036,0.1015,0.0808,0.0489,0.0346,0.0145,0.0096,-0.0148,-0.0144,-0.0207,-0.0357,-0.0352,-0.0253,0,0,0,0,0,0,0.061,0.0668,0.07,0.0785,0.0855,0.0966,0.1023,0.1041,0.0993,0.0986,0.0811,0.0769,0.0452,0.0602,0.0143,0.0086,0.0021,-0.0276,-0.028,-0.036,-0.0355,-0.0351,-0.0248,0,0,0,0,0]}]]